| time (UTC) | temp C | wind direction | speed KPH | gust KPH | rain 1hr cm | rain 24hr cm | rain mn cm | humidity % | barometer mb |
| 20260507220402 | 15 | 0.0 | 0.0 | 0.00 | 0.00 | 0.00 | 100 | 1015.9 | |
| 20260507214401 | 14 | 0.0 | 0.0 | 0.00 | 0.00 | 0.00 | 100 | 1016.0 | |
| 20260507212400 | 15 | 0.0 | 0.0 | 0.00 | 0.00 | 0.00 | 100 | 1015.9 | |
| 20260507210400 | 14 | 0.0 | 0.0 | 0.00 | 0.00 | 0.00 | 100 | 1015.9 | |
| 20260507204359 | 14 | 0.0 | 0.0 | 0.00 | 0.00 | 0.00 | 100 | 1015.5 | |
| 20260507202358 | 14 | 0.0 | 0.0 | 0.00 | 0.00 | 0.00 | 100 | 1015.5 | |
| 20260507200357 | 15 | 0.0 | 0.0 | 0.00 | 0.00 | 0.00 | 100 | 1015.4 | |
| 20260507194357 | 15 | 0.0 | 0.0 | 0.00 | 0.00 | 0.00 | 100 | 1015.0 | |
| 20260507192356 | 15 | 0.0 | 0.0 | 0.00 | 0.00 | 0.00 | 100 | 1014.9 | |
| 20260507190355 | 15 | 0.0 | 0.0 | 0.00 | 0.00 | 0.00 | 100 | 1014.4 | |
| 20260507184354 | 15 | 0.0 | 0.0 | 0.00 | 0.00 | 0.00 | 100 | 1014.4 | |
| 20260507182354 | 15 | 0.0 | 0.0 | 0.00 | 0.00 | 0.00 | 100 | 1014.4 | |
| 20260507180353 | 15 | 0.0 | 0.0 | 0.00 | 0.00 | 0.00 | 100 | 1014.3 | |
| 20260507174352 | 15 | 0.0 | 0.0 | 0.00 | 0.00 | 0.00 | 100 | 1014.0 | |
| 20260507172351 | 16 | 0.0 | 0.0 | 0.00 | 0.00 | 0.00 | 100 | 1013.9 | |
| 20260507170351 | 17 | 0.0 | 0.0 | 0.00 | 0.00 | 0.00 | 89 | 1013.5 | |
| 20260507164350 | 17 | 0.0 | 0.0 | 0.00 | 0.00 | 0.00 | 90 | 1013.2 | |
| 20260507162349 | 17 | 0.0 | 0.0 | 0.00 | 0.00 | 0.00 | 93 | 1012.9 | |
| 20260507160348 | 18 | 0.0 | 0.0 | 0.00 | 0.00 | 0.00 | 94 | 1012.8 | |
| 20260507154348 | 18 | 0.0 | 0.0 | 0.00 | 0.00 | 0.00 | 95 | 1012.6 | |
| 20260507152347 | 20 | 0.0 | 0.0 | 0.00 | 0.00 | 0.00 | 64 | 1012.4 | |
| 20260507150346 | 22 | 0.0 | 0.0 | 0.00 | 0.00 | 0.00 | 55 | 1011.8 | |
| 20260507144346 | 22 | 0.0 | 0.0 | 0.00 | 0.00 | 0.00 | 53 | 1011.5 | |
| 20260507142345 | 22 | 0.0 | 0.0 | 0.00 | 0.00 | 0.00 | 51 | 1011.6 | |
| 20260507140344 | 23 | 0.0 | 0.0 | 0.00 | 0.00 | 0.00 | 49 | 1011.5 | |
| 20260507134343 | 22 | 0.0 | 0.0 | 0.00 | 0.00 | 0.00 | 49 | 1011.4 | |
| 20260507132343 | 23 | 0.0 | 0.0 | 0.00 | 0.00 | 0.00 | 48 | 1011.3 | |
| 20260507130342 | 23 | 0.0 | 0.0 | 0.00 | 0.00 | 0.00 | 50 | 1011.5 | |
| 20260507124341 | 22 | 0.0 | 0.0 | 0.00 | 0.00 | 0.00 | 50 | 1011.3 | |
| 20260507122340 | 23 | 0.0 | 0.0 | 0.00 | 0.00 | 0.00 | 48 | 1011.4 | |
| 20260507120340 | 23 | 0.0 | 0.0 | 0.00 | 0.00 | 0.00 | 48 | 1011.5 | |
| 20260507114340 | 23 | 0.0 | 0.0 | 0.00 | 0.00 | 0.00 | 48 | 1011.7 | |
| 20260507112338 | 23 | 0.0 | 0.0 | 0.00 | 0.00 | 0.00 | 47 | 1011.7 | |
| 20260507110337 | 22 | 0.0 | 0.0 | 0.00 | 0.00 | 0.00 | 48 | 1011.6 | |
| 20260507104337 | 23 | 0.0 | 0.0 | 0.00 | 0.00 | 0.00 | 47 | 1011.7 | |
| 20260507102336 | 23 | 0.0 | 0.0 | 0.00 | 0.00 | 0.00 | 47 | 1011.5 | |
| 20260507100335 | 22 | 0.0 | 0.0 | 0.00 | 0.00 | 0.00 | 47 | 1011.6 | |
| 20260507094335 | 23 | 0.0 | 0.0 | 0.00 | 0.00 | 0.00 | 49 | 1011.3 | |
| 20260507092334 | 22 | 0.0 | 0.0 | 0.00 | 0.00 | 0.00 | 53 | 1011.3 | |
| 20260507090333 | 22 | 0.0 | 0.0 | 0.00 | 0.00 | 0.00 | 59 | 1011.4 | |
| 20260507084332 | 21 | 0.0 | 0.0 | 0.00 | 0.00 | 0.00 | 66 | 1011.2 | |
| 20260507082332 | 20 | 0.0 | 0.0 | 0.00 | 0.00 | 0.00 | 71 | 1011.3 | |
| 20260507080331 | 18 | 0.0 | 0.0 | 0.00 | 0.00 | 0.00 | 76 | 1011.5 | |
| 20260507074330 | 18 | 0.0 | 0.0 | 0.00 | 0.00 | 0.00 | 76 | 1011.6 | |
| 20260507072329 | 18 | 0.0 | 0.0 | 0.00 | 0.00 | 0.00 | 75 | 1011.3 | |
| 20260507070329 | 18 | 0.0 | 0.0 | 0.00 | 0.00 | 0.00 | 78 | 1011.4 | |
| 20260507064328 | 17 | 0.0 | 0.0 | 0.00 | 0.00 | 0.00 | 82 | 1011.5 | |
| 20260507062327 | 17 | 0.0 | 0.0 | 0.00 | 0.00 | 0.00 | 84 | 1011.4 |